Simultaneous Nadir Overpasses (SNOs) Predictions

Prediction of SNOs between GOES-16 and AQUA Satellite Orbit:

Table of predicted SNOs for the next 14.0 days since TLE Epoch: 12/4/2021
Index Date Time (GOES-16) GOES-16 Lat,Lon AQUA Lat,Lon Distance(km) Time Diff (sec)
1 12/05/2021 18:35:42 -0.00, -75.18 0.13, -74.63 63.33 80
2 12/07/2021 18:23:33 -0.01, -75.18 0.74, -71.67 398.75 80
3 12/08/2021 06:42:09 0.00, -75.18 0.36, -76.83 187.99 80
4 12/10/2021 06:30:00 0.00, -75.19 -0.26, -73.88 148.61 80
5 12/10/2021 18:51:25 -0.00, -75.20 -0.84, -79.07 441.28 80
6 12/12/2021 06:17:51 0.00, -75.21 -0.89, -70.93 486.22 80
7 12/12/2021 18:39:16 -0.00, -75.22 -0.21, -76.12 103.40 80
8 12/14/2021 18:29:47 -0.00, -75.24 0.42, -73.17 235.26 80
9 12/15/2021 06:51:03 0.00, -75.25 0.67, -78.33 350.51 80
10 12/17/2021 06:38:54 0.01, -75.28 0.03, -75.38 11.37 80
